FLOCK 4S-24 (47539 NORAD) Tracking and Keplerian Element Data

This shows tracking and keplerian element data for the satellite.

Feedback or suggestion? Click here.




ElementValue
Catalog47539
NameFLOCK 4S-24
Epoch Orbit1168
Epoch Day99.87992304
Epoch Year2021
RAAN162.3038
Inclination97.4962
Eccentricity0.0010762
Argument of Perigee342.6075
Mean Anonmoly17.4786
Mean Motion15.12766241
Decay Rate1.197E-05
L11 47539U 21006DZ 21099.87992304 .00001197 00000-0 71878-4 0 9993
L22 47539 97.4962 162.3038 0010762 342.6075 17.4786 15.12766241 11687

Live tracking and technical data element details for FLOCK 4S-24 (NORAD 47539). FLOCK 4S-24 can be tracked NOW for your location showing map with azimuth and elevation plus other details from your city location.

Track the satellite on the map from your city or location and see movement details for azimuth, elevation, latitude, longitude, range, height, and movement on the map or in text.







IsCatalogInMostPopularTable: catalog: 47539, numindb: 15
Update: records affected: 1



GetName: 47539 FLOCK 4S-24

Hit Count: updated at: Sat, 10 Apr 2021 19:48:27 GMT